Location: Newark
(47.4333°N, 19.2500°E)
Time: 17:58:53
(UTC+00:00)

M-CUBED/EXP-1 PRIME - Visible Passes

Search period start: 14 May 2021 00:00
Search period end: 24 May 2021 00:00
Orbit: 428 x 659 km, 101.7° (Epoch: 13 May)

Date Brightness Start Highest point End Pass type
(mag) Time Alt. Az. Time Alt. Az. Time Alt. Az.
14 May ? 00:01:12 10° NNW 00:02:51 13° NW 00:03:40 12° WNW visible
14 May ? 22:19:27 10° NNE 22:21:42 31° ENE 22:21:42 31° ENE visible
14 May ? 23:54:32 10° NNW 23:56:37 15° NW 23:57:16 15° WNW visible
15 May ? 22:13:16 10° NE 22:15:18 26° ENE 22:15:18 26° ENE visible
15 May ? 23:47:58 10° NNW 23:50:24 18° WNW 23:50:52 18° WNW visible
16 May ? 22:07:07 10° NE 22:08:53 21° ENE 22:08:53 21° ENE visible
16 May ? 23:41:27 10° N 23:44:08 22° WNW 23:44:28 21° WNW visible
17 May ? 22:01:01 10° NE 22:02:29 18° ENE 22:02:29 18° ENE visible
17 May ? 23:34:58 10° N 23:37:52 26° WNW 23:38:03 26° WNW visible
18 May ? 21:55:00 10° NE 21:56:04 14° ENE 21:56:04 14° ENE visible
18 May ? 23:28:32 10° N 23:31:36 32° WNW 23:31:38 32° WNW visible
19 May ? 21:49:07 10° ENE 21:49:39 12° ENE 21:49:39 12° ENE visible
19 May ? 23:22:08 10° N 23:25:13 39° WNW 23:25:13 39° WNW visible
20 May ? 23:15:44 10° N 23:18:48 49° NW 23:18:48 49° NW visible
21 May ? 23:09:22 10° NNE 23:12:23 61° NW 23:12:23 61° NW visible
22 May ? 23:03:00 10° NNE 23:05:58 68° N 23:05:58 68° N visible
23 May ? 22:56:41 10° NNE 22:59:33 61° NE 22:59:33 61° NE visible
